Tiempo atmosférico en la estación meteorológica de Candelaria, Santa Cruz de Tenerife (463 m.)



Fecha
DESCASC
Temp. máxima en grados centígrados (hora)
DESCASC
Temp. mínima en grados centígrados (hora)
DESCASC
Temp. media en grados centígrados
DESCASC
Racha de viento máxima en m/sg (hora)
DESCASC
Velocidad máxima media en intervalos de 10 minutos(hora)
DESCASC
Precipitaciones diarias en mm
DESCASC
Precipitaciones de 00:00 a 06:00 en mm
DESCASC
Precipitaciones de 06:00 a 12:00 en mm
DESCASC
Precipitaciones de 12:00 a 18:00 en mm
DESCASC
Precipitaciones de 18:00 a 24:00 en mm
DESCASC
14-10-2018 23.8 (11:20) 16.8 (07:30) 20.3 10.28 (18:20) 7.5 (18:20) 0 0 0 0 0
13-10-2018 23.6 (15:40) 14.4 (07:50) 19 6.67 (13:30) 4.17 (13:30) 0 0 0 0 0
12-10-2018 23 (11:20) 15.9 (07:50) 19.4 6.67 (13:50) 3.89 (13:40) 0 0 0 0 0
11-10-2018 23 (14:00) 17.1 (08:20) 20.1 6.11 (13:40) 4.17 (11:30) 0 0 0 0 0
10-10-2018 22.2 (15:40) 17.9 (06:50) 20.1 4.72 (16:00) 2.78 (22:10) 0 0 0 0 0
08-10-2018 24.8 (15:30) 18.5 (04:30) 21.6 7.22 (16:40) 4.44 (16:10) 0 0 0 0 0
07-10-2018 25.2 (14:10) 17.1 (04:00) 21.2 6.94 (13:30) 3.89 (15:10) 0 0 0 0 0
06-10-2018 22.6 (14:30) 16.7 (05:40) 19.7 5 (11:50) 3.89 (07:30) 0 0 0 0 0
05-10-2018 23 (12:40) 17.3 (02:00) 20.1 6.67 (13:50) 3.61 (13:50) 0 0 0 0 0
04-10-2018 26.2 (13:30) 17.1 (00:00) 21.7 5.28 (16:10) 3.89 (03:20) 0 0 0 0 0
03-10-2018 23.5 (13:30) 15.9 (00:00) 19.7 6.11 (13:40) 3.89 (13:20) 0 0 0 0 0
02-10-2018 23.6 (13:20) 16.8 (00:00) 20.2 6.94 (11:00) 3.89 (10:50) 0 0 0 0 0
01-10-2018 24.6 (11:30) 16.9 (00:00) 20.8 6.39 (13:00) 4.72 (06:20) 0 0 0 0 0
30-09-2018 24.9 (10:50) 18.6 (00:00) 21.8 15 (01:10) 10 (02:20) 0 0 0 0 0
29-09-2018 28.2 (14:00) 19 (00:00) 23.6 12.5 (14:20) 6.94 (23:50) 0 0 0 0 0
28-09-2018 27.5 (15:30) 18.4 (00:00) 22.9 10.56 (00:10) 5.83 (00:40) 0 0 0 0 0
27-09-2018 33.3 (13:30) 18.6 (00:00) 25.9 18.33 (18:00) 12.22 (17:50) 0 0 0 0 0
26-09-2018 28.2 (22:00) 18.4 (00:00) 23.3 7.5 (21:00) 4.17 (21:50) 0 0 0 0 0
25-09-2018 28.5 (18:10) 18.7 (00:00) 23.6 5.83 (06:20) 4.17 (07:50) 0 0 0 0 0
24-09-2018 29.8 (09:50) 21 (00:00) 25.4 5.83 (05:10) 3.61 (14:20) 0 0 0 0 0
23-09-2018 29.2 (12:00) 20.2 (01:50) 24.7 4.72 (14:50) 3.61 (04:00) 0 0 0 0 0
22-09-2018 25.6 (17:30) 16 (06:50) 20.8 7.22 (13:10) 4.72 (13:20) 0 0 0 0 0
21-09-2018 23.5 (13:00) 17 (07:40) 20.3 8.33 (12:00) 5.28 (11:50) 0 0 0 0 0
20-09-2018 23.8 (13:50) 17.7 (08:10) 20.8 6.94 (16:10) 3.89 (14:20) 0 0 0 0 0
19-09-2018 26.5 (14:10) 17.2 (05:00) 21.9 7.22 (13:30) 3.89 (10:20) 0 0 0 0 0
18-09-2018 23.6 (13:00) 16.4 (02:20) 20 8.06 (14:10) 5 (11:30) 0 0 0 0 0
17-09-2018 23.4 (14:00) 16.1 (06:50) 19.8 7.78 (13:40) 5 (13:40) 0 0 0 0 0
16-09-2018 25.8 (17:10) 17.4 (00:00) 21.6 8.06 (12:50) 5 (12:40) 0 0 0 0 0
15-09-2018 24.8 (12:50) 18.9 (00:00) 21.8 7.22 (17:40) 4.17 (17:40) 0 0 0 0 0

Gráficas

Temp. máximas Temp. mínimas Temp. medias Precipitaciones Rachas de viento máximas Velocidades máximas media en intervalos de 10 minutos

Datos horarios

Fecha y hora oficial Temperatura (ºC) Velocidad del viento (km/h) Dirección del viento Racha (km/h) Dirección de racha Precipitación (mm) Presión (hPa) Tendencia (hPa) Humedad (%)
2018-10-14 23:00:00 19 2 Oeste 14 Nordeste 0 -- -- 92
2018-10-14 22:00:00 19 3 Sudeste 28 Este 0 -- -- 94
2018-10-14 21:00:00 19.1 12 Este 23 Este 0 -- -- 96
2018-10-14 20:00:00 19.2 15 Este 35 Sudeste 0 -- -- 95
2018-10-14 19:00:00 19.5 24 Este 37 Este 0 -- -- 96
2018-10-14 18:00:00 19.8 19 Este 28 Sudeste 0 -- -- 94
2018-10-14 17:00:00 20.3 17 Sudeste 24 Este 0 -- -- 92
2018-10-14 16:00:00 20.5 16 Sudeste 27 Sudeste 0 -- -- 87
2018-10-14 15:00:00 21 20 Sudeste 28 Sudeste 0 -- -- 87
2018-10-14 14:00:00 21 16 Sudeste 29 Sudeste 0 -- -- 90
2018-10-14 13:00:00 19.8 19 Este 37 Sudeste 0 -- -- 95
2018-10-14 12:00:00 21.4 21 Sudeste 31 Sudeste 0 -- -- 87
2018-10-14 11:00:00 23.3 8 Sur 14 Sur 0 -- -- 71
2018-10-14 10:00:00 22.6 8 Sudoeste 13 Sudoeste 0 -- -- 69
2018-10-14 09:00:00 19.7 3 Sudoeste 10 Noroeste 0 -- -- 80
2018-10-14 08:00:00 17 9 Norte 12 Norte 0 -- -- 82
2018-10-14 07:00:00 17 9 Norte 13 Norte 0 -- -- 79
2018-10-14 06:00:00 17.2 11 Norte 15 Norte 0 -- -- 80
2018-10-14 05:00:00 16.9 6 Noroeste 9 Norte 0 -- -- 82
2018-10-14 04:00:00 17.1 7 Norte 10 Norte 0 -- -- 82
2018-10-14 03:00:00 17.5 3 Noroeste 10 Norte 0 -- -- 82
2018-10-14 02:00:00 17.5 5 Norte 10 Nordeste 0 -- -- 81
2018-10-14 01:00:00 18.3 7 Norte 13 Norte 0 -- -- 82
2018-10-14 00:00:00 18.3 6 Norte 8 Norte 0 -- -- 81
2018-10-13 23:00:00 18.5 4 Norte 6 Norte 0 -- -- 79
2018-10-13 22:00:00 19.4 2 Nordeste 8 Norte 0 -- -- 76
2018-10-13 21:00:00 19.4 7 Norte 8 Norte 0 -- -- 76
2018-10-13 20:00:00 20.3 0 Calma 7 Sudeste 0 -- -- 73
2018-10-13 19:00:00 21.2 5 Sudeste 9 Sudeste 0 -- -- 71
2018-10-13 18:00:00 22.6 5 Sudeste 15 Sur 0 -- -- 71
2018-10-13 17:00:00 23.2 8 Sudeste 16 Sudoeste 0 -- -- 70
2018-10-13 16:00:00 23.1 10 Sur 17 Sudeste 0 -- -- 71
2018-10-13 15:00:00 22.8 10 Sur 19 Sudeste 0 -- -- 71
2018-10-13 14:00:00 22.9 9 Sudeste 24 Sudeste 0 -- -- 71
2018-10-13 13:00:00 23.1 10 Sur 19 Sur 0 -- -- 70
2018-10-13 12:00:00 22 7 Sur 19 Sur 0 -- -- 74
2018-10-13 11:00:00 22.1 10 Sur 15 Sudeste 0 -- -- 72
2018-10-13 10:00:00 20.9 4 Sudeste 9 Sudoeste 0 -- -- 73
2018-10-13 09:00:00 18.8 4 Sudeste 13 Norte 0 -- -- 81
2018-10-13 08:00:00 14.4 9 Norte 13 Norte 0 -- -- 70
2018-10-13 07:00:00 14.7 5 Norte 13 Norte 0 -- -- 81
2018-10-13 06:00:00 14.8 6 Norte 13 Norte 0 -- -- 72
2018-10-13 05:00:00 15.2 9 Norte 12 Norte 0 -- -- 82
2018-10-13 04:00:00 15.1 8 Norte 12 Norte 0 -- -- 78
2018-10-13 03:00:00 15.9 8 Norte 11 Norte 0 -- -- 79
2018-10-13 02:00:00 15.5 6 Norte 12 Norte 0 -- -- 78
2018-10-13 01:00:00 15.5 6 Norte 10 Norte 0 -- -- 78
2018-10-13 00:00:00 16.2 7 Norte 12 Norte 0 -- -- 84
2018-10-12 23:00:00 16.5 8 Norte 13 Norte 0 -- -- 85
2018-10-12 22:00:00 17.7 5 Norte 10 Norte 0 -- -- 85
2018-10-12 21:00:00 18.2 8 Norte 13 Norte 0 -- -- 85
2018-10-12 20:00:00 19.4 4 Sudeste 8 Sudeste 0 -- -- 89
2018-10-12 19:00:00 19.8 4 Este 12 Sudeste 0 -- -- 87
2018-10-12 18:00:00 20.3 6 Sudeste 13 Sudeste 0 -- -- 84
2018-10-12 17:00:00 20.9 8 Sudeste 19 Sudeste 0 -- -- 82
2018-10-12 16:00:00 22.2 9 Sudeste 18 Sudeste 0 -- -- 77
2018-10-12 15:00:00 22 9 Sudeste 19 Sudeste 0 -- -- 78
2018-10-12 14:00:00 22.5 12 Sudeste 24 Sur 0 -- -- 74
2018-10-12 13:00:00 22 11 Sudeste 21 Sudeste 0 -- -- 77
2018-10-12 12:00:00 22.2 13 Sudeste 22 Sur 0 -- -- 75
2018-10-12 11:00:00 22.1 9 Sur 17 Sudeste 0 -- -- 75
2018-10-12 10:00:00 21.3 7 Sur 14 Sudeste 0 -- -- 77
2018-10-12 09:00:00 18.5 3 Este 11 Norte 0 -- -- 85
2018-10-12 08:00:00 16 8 Norte 12 Norte 0 -- -- 69
2018-10-12 07:00:00 16.4 5 Noroeste 14 Norte 0 -- -- 75
2018-10-12 06:00:00 16.8 10 Norte 15 Norte 0 -- -- 68
2018-10-12 05:00:00 16.7 8 Norte 12 Norte 0 -- -- 65
2018-10-12 04:00:00 16.8 9 Norte 13 Norte 0 -- -- 64
2018-10-12 03:00:00 16.8 8 Norte 14 Norte 0 -- -- 68
2018-10-12 02:00:00 16.9 12 Norte 15 Norte 0 -- -- 67
2018-10-12 01:00:00 17.2 10 Norte 13 Norte 0 -- -- 70
2018-10-12 00:00:00 17.3 7 Norte 10 Norte 0 -- -- 73
2018-10-11 23:00:00 18 4 Nordeste 9 Norte 0 -- -- 83
2018-10-11 22:00:00 19.6 0 Calma 5 Sudeste 0 -- -- 90
2018-10-11 21:00:00 19.8 3 Sudoeste 6 Sudeste 0 -- -- 88
2018-10-11 20:00:00 20 2 Sudoeste 8 Sur 0 -- -- 85
2018-10-11 19:00:00 20.4 6 Sudeste 13 Sudeste 0 -- -- 84
2018-10-11 18:00:00 21.4 4 Este 12 Sudeste 0 -- -- 79
2018-10-11 17:00:00 21.3 5 Sudeste 17 Sudeste 0 -- -- 78
2018-10-11 16:00:00 22.3 8 Sur 15 Sudeste 0 -- -- 72
2018-10-11 15:00:00 22.4 10 Sudeste 18 Sudeste 0 -- -- 74
2018-10-11 14:00:00 23 13 Sudeste 22 Sudeste 0 -- -- 70
2018-10-11 13:00:00 22.9 13 Sudeste 22 Sur 0 -- -- 74
2018-10-11 12:00:00 22.1 10 Sudeste 22 Sudeste 0 -- -- 78
2018-10-11 11:00:00 21.7 9 Sudeste 17 Sudeste 0 -- -- 80
2018-10-11 10:00:00 20.2 5 Sur 8 Sur 0 -- -- 88
2018-10-11 09:00:00 18.2 3 Nordeste 12 Norte 0 -- -- 74
2018-10-11 08:00:00 17.4 9 Norte 14 Norte 0 -- -- 72
2018-10-11 07:00:00 18.1 3 Nordeste 8 Norte 0 -- -- 81
2018-10-11 06:00:00 18.7 5 Nordeste 8 Norte 0 -- -- 91
2018-10-11 05:00:00 18.4 0 Calma 8 Norte 0 -- -- 87
2018-10-11 04:00:00 18.9 2 Nordeste 7 Sudeste 0 -- -- 91
2018-10-11 03:00:00 19.4 3 Este 7 Oeste 0 -- -- 86
2018-10-11 02:00:00 19.5 3 Noroeste 4 Noroeste 0 -- -- 87
2018-10-11 01:00:00 19.5 2 Este 12 Norte 0 -- -- 87
2018-10-11 00:00:00 19 3 Norte 9 Norte 0 -- -- 77
2018-10-10 23:00:00 18.8 4 Noroeste 13 Norte 0 -- -- 82
2018-10-10 22:00:00 19.1 9 Norte 13 Norte 0 -- -- 75
2018-10-10 21:00:00 19.9 5 Nordeste 10 Este 0 -- -- 82
2018-10-10 20:00:00 20.5 8 Sudeste 13 Sudeste 0 -- -- 87
2018-10-10 19:00:00 21 6 Sudeste 14 Este 0 -- -- 85
2018-10-10 18:00:00 21.8 8 Este 14 Este 0 -- -- 81
2018-10-10 17:00:00 21.4 7 Sudeste 17 Sudeste 0 -- -- 83
2018-10-10 16:00:00 21.9 10 Sudeste 17 Sudeste 0 -- -- 77
2018-10-10 15:00:00 21.8 5 Sur 15 Sudeste 0 -- -- 77
2018-10-10 14:00:00 21.8 9 Sur 15 Sudeste 0 -- -- 79
2018-10-10 13:00:00 21.7 8 Sudeste 15 Sudeste 0 -- -- 79
2018-10-10 12:00:00 21.5 6 Este 14 Sudeste 0 -- -- 80
2018-10-10 11:00:00 21.3 6 Sur 11 Sudoeste 0 -- -- 81
2018-10-10 10:00:00 21.3 4 Sudoeste 12 Sur 0 -- -- 75
2018-10-10 09:00:00 20.3 3 Sudoeste 8 Norte 0 -- -- 79
2018-10-10 08:00:00 18.5 4 Norte 11 Norte 0 -- -- 83
2018-10-10 07:00:00 17.9 5 Nordeste 11 Norte 0 -- -- 84
2018-10-10 06:00:00 18.2 7 Noroeste 10 Norte 0 -- -- 85
2018-10-10 05:00:00 19.2 5 Oeste 10 Oeste 0 -- -- 89
2018-10-10 04:00:00 19.7 5 Oeste 10 Oeste 0 -- -- 88
2018-10-10 03:00:00 19.5 4 Noroeste 9 Oeste 0 -- -- 84
2018-10-10 02:00:00 20.1 2 Sudoeste 8 Sudeste 0 -- -- 87
2018-10-10 01:00:00 19.9 5 Sudeste 9 Nordeste 0 -- -- 88
2018-10-10 00:00:00 20.1 2 Este 8 Sudoeste 0 -- -- 83
2018-10-09 23:00:00 20.1 4 Oeste 12 Oeste 0 -- -- 85
2018-10-09 22:00:00 20.8 5 Noroeste 12 Noroeste 0 -- -- 72
2018-10-09 21:00:00 21.4 7 Oeste 12 Noroeste 0 -- -- 73
2018-10-09 20:00:00 21.1 5 Oeste 8 Oeste 0 -- -- 82
2018-10-09 19:00:00 21.5 7 Sudeste 14 Sudeste 0 -- -- 81
2018-10-09 18:00:00 21.8 10 Sudeste 16 Sur 0 -- -- 80
2018-10-09 17:00:00 22.5 6 Sudeste 20 Sudeste 0 -- -- 76
2018-10-09 16:00:00 23.7 9 Sudeste 24 Sur 0 -- -- 67
2018-10-09 15:00:00 24.6 11 Sudeste 22 Sudeste 0 -- -- 64
2018-10-09 14:00:00 25.1 10 Sudeste 19 Este 0 -- -- 60
2018-10-09 13:00:00 24.4 9 Sudeste 19 Sudeste 0 -- -- 59
2018-10-09 12:00:00 23.6 12 Sudeste 20 Sudeste 0 -- -- 62
2018-10-09 11:00:00 23 9 Sudoeste 19 Sur 0 -- -- 60
2018-10-09 10:00:00 22.9 7 Sur 14 Sur 0 -- -- 60
2018-10-09 09:00:00 20.3 4 Oeste 13 Norte 0 -- -- 68
2018-10-09 08:00:00 16.9 6 Noroeste 12 Noroeste 0 -- -- 63
2018-10-09 07:00:00 17 3 Noroeste 9 Norte 0 -- -- 76
2018-10-09 06:00:00 17.2 7 Noroeste 13 Norte 0 -- -- 69
2018-10-09 05:00:00 17.2 7 Norte 19 Norte 0 -- -- 65
2018-10-09 04:00:00 17.1 7 Norte 12 Norte 0 -- -- 84
2018-10-09 03:00:00 17.6 5 Noroeste 12 Norte 0 -- -- 85
2018-10-09 02:00:00 18.1 8 Norte 12 Norte 0 -- -- 82
2018-10-09 01:00:00 18.3 10 Norte 14 Norte 0 -- -- 75
2018-10-09 00:00:00 18.5 7 Norte 10 Norte 0 -- -- 81
2018-10-08 23:00:00 19.9 2 Sudoeste 9 Noroeste 0 -- -- 91
2018-10-08 22:00:00 19.6 4 Norte 9 Sur 0 -- -- 83
2018-10-08 21:00:00 20 4 Sudeste 13 Este 0 -- -- 93
2018-10-08 20:00:00 20.2 11 Sudeste 18 Sudeste 0 -- -- 90
2018-10-08 19:00:00 20.7 12 Este 22 Sudeste 0 -- -- 88
2018-10-08 18:00:00 21.8 13 Este 24 Este 0 -- -- 82
2018-10-08 17:00:00 23.9 16 Sudeste 26 Sudeste 0 -- -- 71
2018-10-08 16:00:00 24.5 15 Sudeste 23 Sudeste 0 -- -- 69
2018-10-08 15:00:00 24 12 Este 23 Sudeste 0 -- -- 69
2018-10-08 14:00:00 24.1 11 Sudeste 23 Sudeste 0 -- -- 69
2018-10-08 13:00:00 24.2 11 Sudeste 23 Sudeste 0 -- -- 75
2018-10-08 12:00:00 23.2 9 Sudeste 19 Sudeste 0 -- -- 74
2018-10-08 11:00:00 22.5 9 Sudeste 17 Sur 0 -- -- 82
2018-10-08 10:00:00 22.2 5 Sur 12 Sur 0 -- -- 79
2018-10-08 09:00:00 20 5 Nordeste 10 Norte 0 -- -- 82
2018-10-08 08:00:00 18.5 3 Noroeste 9 Sudeste 0 -- -- 90
2018-10-08 07:00:00 19.1 2 Nordeste 14 Este 0 -- -- 89
2018-10-08 06:00:00 18.9 3 Nordeste 9 Oeste 0 -- -- 93
2018-10-08 05:00:00 18.7 2 Noroeste 8 Norte 0 -- -- 92
2018-10-08 04:00:00 18.9 3 Noroeste 8 Norte 0 -- -- 93
2018-10-08 03:00:00 19.1 4 Nordeste 10 Norte 0 -- -- 82
2018-10-08 02:00:00 19.9 3 Este 6 Este 0 -- -- 94
2018-10-08 01:00:00 19.9 0 Calma 10 Este 0 -- -- 90
2018-10-08 00:00:00 20 6 Este 10 Este 0 -- -- 94
2018-10-07 23:00:00 20.2 5 Noroeste 7 Noroeste 0 -- -- 90
2018-10-07 22:00:00 20.6 0 Calma 6 Oeste 0 -- -- 85
2018-10-07 21:00:00 21 4 Oeste 9 Sudeste 0 -- -- 88
2018-10-07 20:00:00 21.1 5 Sudoeste 10 Sudeste 0 -- -- 90
2018-10-07 19:00:00 21.5 6 Este 17 Este 0 -- -- 89
2018-10-07 18:00:00 22.8 6 Sudeste 16 Sur 0 -- -- 82
2018-10-07 17:00:00 23.6 9 Sudeste 18 Sudeste 0 -- -- 77
2018-10-07 16:00:00 24.5 12 Sudeste 22 Sudeste 0 -- -- 70
2018-10-07 15:00:00 25 9 Sur 22 Sur 0 -- -- 62
2018-10-07 14:00:00 25.1 10 Sur 25 Sudeste 0 -- -- 56
2018-10-07 13:00:00 24.5 11 Sur 24 Sur 0 -- -- 57
2018-10-07 12:00:00 24.4 10 Sur 18 Sur 0 -- -- 61
2018-10-07 11:00:00 23.8 8 Sur 17 Sudeste 0 -- -- 63
2018-10-07 10:00:00 23.6 9 Sudeste 16 Sudeste 0 -- -- 51
2018-10-07 09:00:00 21.5 4 Este 10 Norte 0 -- -- 51
2018-10-07 08:00:00 18.6 7 Norte 14 Norte 0 -- -- 57
2018-10-07 07:00:00 18.1 8 Norte 17 Norte 0 -- -- 64
2018-10-07 06:00:00 17.9 13 Norte 17 Norte 0 -- -- 61
2018-10-07 05:00:00 17.8 12 Norte 14 Norte 0 -- -- 65
2018-10-07 04:00:00 17.1 5 Norte 10 Norte 0 -- -- 68
2018-10-07 03:00:00 17.3 2 Noroeste 9 Norte 0 -- -- 77
2018-10-07 02:00:00 17.9 0 Calma 6 Noroeste 0 -- -- 79
2018-10-07 01:00:00 18.5 3 Este 9 Norte 0 -- -- 72
2018-10-07 00:00:00 18.3 3 Nordeste 9 Norte 0 -- -- 86
2018-10-06 23:00:00 19 2 Este 8 Nordeste 0 -- -- 90
2018-10-06 22:00:00 19.6 4 Sudeste 7 Sudeste 0 -- -- 91
2018-10-06 21:00:00 19.7 4 Sur 9 Sur 0 -- -- 89
2018-10-06 20:00:00 19.9 7 Sur 9 Sudoeste 0 -- -- 89
2018-10-06 19:00:00 20.1 3 Sudeste 9 Sur 0 -- -- 90
2018-10-06 18:00:00 20.4 4 Sudeste 12 Este 0 -- -- 88
2018-10-06 17:00:00 21.1 9 Sudeste 16 Sur 0 -- -- 83
2018-10-06 16:00:00 21.7 6 Sudeste 14 Sudeste 0 -- -- 80
2018-10-06 15:00:00 21.9 8 Sur 16 Sur 0 -- -- 79
2018-10-06 14:00:00 21.7 7 Sur 15 Sur 0 -- -- 80
2018-10-06 13:00:00 20.5 6 Este 15 Sudeste 0 -- -- 86
2018-10-06 12:00:00 21.1 9 Sur 18 Sudeste 0 -- -- 83
2018-10-06 11:00:00 21.2 10 Sur 16 Sur 0 -- -- 81
2018-10-06 10:00:00 21.7 8 Sudeste 13 Sudeste 0 -- -- 73
2018-10-06 09:00:00 18.7 3 Nordeste 11 Norte 0 -- -- 79
2018-10-06 08:00:00 17.4 4 Nordeste 16 Norte 0 -- -- 79
2018-10-06 07:00:00 17.3 12 Norte 14 Norte 0 -- -- 80
2018-10-06 06:00:00 17 8 Norte 13 Norte 0 -- -- 84
2018-10-06 05:00:00 17 5 Norte 9 Norte 0 -- -- 90
2018-10-06 04:00:00 17.7 7 Norte 12 Norte 0 -- -- 83
2018-10-06 03:00:00 18.3 5 Nordeste 8 Norte 0 -- -- 91
2018-10-06 02:00:00 18.9 4 Nordeste 6 Nordeste 0 -- -- 92
2018-10-06 01:00:00 19 3 Noroeste 6 Sudoeste 0 -- -- 90
2018-10-06 00:00:00 19.2 4 Sudoeste 6 Sudoeste 0 -- -- 92
2018-10-05 23:00:00 19.1 2 Sudeste 6 Nordeste 0 -- -- 93
2018-10-05 22:00:00 19.2 4 Oeste 10 Oeste 0 -- -- 93
2018-10-05 21:00:00 19.2 5 Sudoeste 8 Sudoeste 0 -- -- 93
2018-10-05 20:00:00 19.2 0 Calma 13 Sudoeste 0 -- -- 92
2018-10-05 19:00:00 19.4 6 Sudoeste 11 Sudoeste 0 -- -- 91
2018-10-05 18:00:00 19.6 6 Sudeste 10 Sur 0 -- -- 90
2018-10-05 17:00:00 19.8 5 Sur 11 Sudeste 0 -- -- 89
2018-10-05 16:00:00 20.3 6 Sudeste 12 Sur 0 -- -- 86
2018-10-05 15:00:00 21 8 Sudeste 16 Sudeste 0 -- -- 83
2018-10-05 14:00:00 22 12 Este 24 Sudeste 0 -- -- 78
2018-10-05 13:00:00 22.4 12 Sur 18 Sur 0 -- -- 75
2018-10-05 12:00:00 22.6 8 Sur 15 Sudeste 0 -- -- 72
2018-10-05 11:00:00 20.7 6 Sudeste 10 Sudeste 0 -- -- 77
2018-10-05 10:00:00 20 0 Calma 5 Sudoeste 0 -- -- 77
2018-10-05 09:00:00 18.8 3 Noroeste 9 Oeste 0 -- -- 82
2018-10-05 08:00:00 17.8 5 Oeste 7 Oeste 0 -- -- 53
2018-10-05 07:00:00 17.6 2 Oeste 5 Noroeste 0 -- -- 66
2018-10-05 06:00:00 17.5 2 Oeste 9 Norte 0 -- -- 48
2018-10-05 05:00:00 18.8 5 Norte 10 Norte 0 -- -- 42
2018-10-05 04:00:00 19.3 10 Norte 13 Norte 0 -- -- 43
2018-10-05 03:00:00 19 9 Norte 15 Norte 0 -- -- 45
2018-10-05 02:00:00 17.3 0 Calma 6 Norte 0 -- -- 81
2018-10-05 01:00:00 18 0 Calma 4 Nordeste 0 -- -- 86
2018-10-05 00:00:00 18.6 0 Calma 3 Noroeste 0 -- -- 78
2018-10-04 23:00:00 19.7 0 Calma 4 Este 0 -- -- 82
2018-10-04 22:00:00 20.3 3 Sudeste 7 Sudeste 0 -- -- 87
2018-10-04 21:00:00 20.9 0 Calma 6 Sudeste 0 -- -- 80
2018-10-04 20:00:00 21.3 4 Sudeste 9 Sudeste 0 -- -- 82
2018-10-04 19:00:00 22.4 4 Sudeste 17 Este 0 -- -- 75
2018-10-04 18:00:00 24.2 6 Sudeste 15 Este 0 -- -- 67
2018-10-04 17:00:00 25 7 Este 19 Sudeste 0 -- -- 59
2018-10-04 16:00:00 25.1 8 Sudeste 14 Sudeste 0 -- -- 58
2018-10-04 15:00:00 25.1 10 Sur 18 Sudeste 0 -- -- 60
2018-10-04 14:00:00 24.9 8 Sudeste 18 Sudeste 0 -- -- 56
2018-10-04 13:00:00 25.5 8 Sur 15 Este 0 -- -- 57
2018-10-04 12:00:00 24.5 8 Sudeste 15 Sudeste 0 -- -- 60
2018-10-04 11:00:00 23.2 4 Sudeste 10 Este 0 -- -- 51
2018-10-04 10:00:00 22.3 3 Sudeste 5 Sudeste 0 -- -- 45
2018-10-04 09:00:00 20.2 2 Oeste 8 Norte 0 -- -- 48
2018-10-04 08:00:00 17.6 2 Nordeste 7 Oeste 0 -- -- 55
2018-10-04 07:00:00 18.3 4 Oeste 14 Norte 0 -- -- 75
2018-10-04 06:00:00 19 12 Norte 19 Norte 0 -- -- 45
2018-10-04 05:00:00 17.9 3 Noroeste 9 Oeste 0 -- -- 69
2018-10-04 04:00:00 18.5 3 Noroeste 17 Norte 0 -- -- 62
2018-10-04 03:00:00 18.6 6 Oeste 14 Norte 0 -- -- 52
2018-10-04 02:00:00 18.3 5 Oeste 9 Oeste 0 -- -- 76
2018-10-04 01:00:00 17.9 3 Noroeste 8 Nordeste 0 -- -- 81
2018-10-04 00:00:00 18.7 4 Nordeste 10 Norte 0 -- -- 61
2018-10-03 23:00:00 18.1 0 Calma 6 Noroeste 0 -- -- 76
2018-10-03 22:00:00 19.1 2 Oeste 7 Oeste 0 -- -- 88
2018-10-03 21:00:00 19.6 4 Oeste 13 Sudoeste 0 -- -- 87
2018-10-03 20:00:00 20.2 9 Oeste 15 Sudoeste 0 -- -- 86
2018-10-03 19:00:00 20.8 9 Sudoeste 15 Sudoeste 0 -- -- 83
2018-10-03 18:00:00 21.5 8 Sudeste 18 Este 0 -- -- 79
2018-10-03 17:00:00 22.3 9 Sudeste 19 Sudeste 0 -- -- 74
2018-10-03 16:00:00 22.9 12 Sudeste 21 Sur 0 -- -- 71
2018-10-03 15:00:00 22.9 10 Sudeste 22 Sudeste 0 -- -- 70
2018-10-03 14:00:00 23.3 14 Sudeste 22 Sur 0 -- -- 68
2018-10-03 13:00:00 23 12 Sudeste 20 Sudeste 0 -- -- 68
2018-10-03 12:00:00 23 13 Este 20 Sudeste 0 -- -- 69
2018-10-03 11:00:00 22.1 11 Sudeste 18 Sudeste 0 -- -- 72
2018-10-03 10:00:00 21.5 7 Sudeste 13 Sudeste 0 -- -- 71
2018-10-03 09:00:00 19.7 5 Sudeste 12 Sudeste 0 -- -- 75
2018-10-03 08:00:00 15.9 8 Noroeste 11 Noroeste 0 -- -- 81
2018-10-03 07:00:00 16.3 8 Noroeste 12 Noroeste 0 -- -- 85
2018-10-03 06:00:00 16.5 9 Noroeste 12 Noroeste 0 -- -- 86
2018-10-03 05:00:00 16.3 8 Norte 11 Norte 0 -- -- 87
2018-10-03 04:00:00 16.7 6 Noroeste 11 Noroeste 0 -- -- 85
2018-10-03 03:00:00 17.8 7 Noroeste 10 Noroeste 0 -- -- 85
2018-10-03 02:00:00 18.9 4 Sur 10 Sudoeste 0 -- -- 87
2018-10-03 01:00:00 19.2 3 Sur 10 Oeste 0 -- -- 86
2018-10-03 00:00:00 19.3 3 Oeste 12 Oeste 0 -- -- 89
2018-10-02 23:00:00 19.5 3 Sur 9 Sudeste 0 -- -- 90
2018-10-02 22:00:00 19.6 0 Calma 10 Sudeste 0 -- -- 89
2018-10-02 21:00:00 19.4 6 Sudeste 12 Sudeste 0 -- -- 91
2018-10-02 20:00:00 19.3 8 Sudeste 19 Sudeste 0 -- -- 93
2018-10-02 19:00:00 19.3 13 Este 21 Este 0 -- -- 94
2018-10-02 18:00:00 19.9 14 Este 20 Este 0 -- -- 91
2018-10-02 17:00:00 20.3 7 Sudeste 16 Sudeste 0 -- -- 88
2018-10-02 16:00:00 20.8 11 Sudeste 21 Sudeste 0 -- -- 83
2018-10-02 15:00:00 22 13 Sudeste 22 Sudeste 0 -- -- 77
2018-10-02 14:00:00 22.9 13 Sudeste 25 Sudeste 0 -- -- 74
2018-10-02 13:00:00 23.5 13 Sudeste 23 Sudeste 0 -- -- 70
2018-10-02 12:00:00 22 12 Este 21 Este 0 -- -- 74
2018-10-02 11:00:00 22.2 12 Sudeste 25 Sudeste 0 -- -- 74
2018-10-02 10:00:00 22 7 Sudeste 14 Sur 0 -- -- 66
2018-10-02 09:00:00 20.1 6 Oeste 11 Noroeste 0 -- -- 74
2018-10-02 08:00:00 17.4 10 Noroeste 13 Noroeste 0 -- -- 77
2018-10-02 07:00:00 16.8 7 Norte 13 Norte 0 -- -- 77
2018-10-02 06:00:00 17.2 8 Noroeste 12 Noroeste 0 -- -- 74
2018-10-02 05:00:00 17.3 9 Noroeste 12 Noroeste 0 -- -- 77
2018-10-02 04:00:00 17.4 8 Noroeste 10 Noroeste 0 -- -- 75
2018-10-02 03:00:00 17.1 5 Noroeste 10 Norte 0 -- -- 76
2018-10-02 02:00:00 17.6 6 Noroeste 10 Noroeste 0 -- -- 83
2018-10-02 01:00:00 18.7 9 Noroeste 13 Noroeste 0 -- -- 86
2018-10-02 00:00:00 18.1 8 Noroeste 14 Noroeste 0 -- -- 82
2018-10-01 23:00:00 18.9 6 Noroeste 12 Noroeste 0 -- -- 87
2018-10-01 22:00:00 19.9 8 Oeste 15 Oeste 0 -- -- 89
2018-10-01 21:00:00 20.3 4 Oeste 11 Oeste 0 -- -- 88
2018-10-01 20:00:00 21 6 Sudoeste 9 Sudoeste 0 -- -- 87
2018-10-01 19:00:00 21.2 3 Sudeste 12 Sur 0 -- -- 86
2018-10-01 18:00:00 21.5 5 Sudoeste 17 Sudeste 0 -- -- 86
2018-10-01 17:00:00 22.1 9 Sudeste 16 Este 0 -- -- 84
2018-10-01 16:00:00 23.2 11 Sudeste 21 Sudeste 0 -- -- 78
2018-10-01 15:00:00 23.1 8 Sudeste 18 Sudeste 0 -- -- 78
2018-10-01 14:00:00 22.7 9 Sudeste 18 Sur 0 -- -- 79
2018-10-01 13:00:00 22.5 12 Sudeste 23 Sudeste 0 -- -- 78
2018-10-01 12:00:00 24.3 12 Sudeste 19 Sudeste 0 -- -- 67
2018-10-01 11:00:00 23.8 8 Sudoeste 16 Sudoeste 0 -- -- 69
2018-10-01 10:00:00 22.6 4 Sudoeste 11 Sur 0 -- -- 66
2018-10-01 09:00:00 20.3 3 Noroeste 10 Noroeste 0 -- -- 71
2018-10-01 08:00:00 17.2 9 Norte 18 Noroeste 0 -- -- 68
2018-10-01 07:00:00 18.1 15 Noroeste 22 Oeste 0 -- -- 80
2018-10-01 06:00:00 18.4 12 Noroeste 17 Noroeste 0 -- -- 73
2018-10-01 05:00:00 18.1 12 Noroeste 18 Noroeste 0 -- -- 69
2018-10-01 04:00:00 18.4 14 Noroeste 18 Noroeste 0 -- -- 76
2018-10-01 03:00:00 18.3 10 Noroeste 14 Noroeste 0 -- -- 71
2018-10-01 02:00:00 18 11 Noroeste 17 Noroeste 0 -- -- 73
2018-10-01 01:00:00 18.2 10 Noroeste 14 Noroeste 0 -- -- 76
2018-10-01 00:00:00 18.7 8 Noroeste 10 Noroeste 0 -- -- 88
2018-09-30 23:00:00 18.8 5 Norte 8 Norte 0 -- -- 86
2018-09-30 22:00:00 20.1 3 Oeste 11 Sudoeste 0 -- -- 88
2018-09-30 21:00:00 20 6 Sudoeste 12 Oeste 0 -- -- 89
2018-09-30 20:00:00 20.3 3 Sur 9 Sur 0 -- -- 88
2018-09-30 19:00:00 20.6 4 Sur 16 Sudoeste 0 -- -- 86
2018-09-30 18:00:00 20.9 6 Sur 18 Sudeste 0 -- -- 85
2018-09-30 17:00:00 23.5 10 Sudoeste 18 Sur 0 -- -- 74
2018-09-30 16:00:00 20.8 10 Sudeste 19 Sudeste 0 -- -- 86
2018-09-30 15:00:00 22.2 13 Sudeste 24 Sudeste 0 -- -- 81
2018-09-30 14:00:00 23.6 17 Sudeste 28 Sudeste 0 -- -- 73
2018-09-30 13:00:00 24.6 12 Sudeste 22 Sudeste 0 -- -- 62
2018-09-30 12:00:00 24.6 9 Sur 22 Sudeste 0 -- -- 60
2018-09-30 11:00:00 24.8 15 Sudeste 23 Sur 0 -- -- 54
2018-09-30 10:00:00 24.2 8 Sudoeste 18 Oeste 0 -- -- 49
2018-09-30 09:00:00 21.7 9 Oeste 15 Oeste 0 -- -- 57
2018-09-30 08:00:00 19.2 13 Noroeste 17 Noroeste 0 -- -- 66
2018-09-30 07:00:00 19.3 8 Nordeste 14 Noroeste 0 -- -- 68
2018-09-30 06:00:00 19.1 7 Noroeste 13 Oeste 0 -- -- 70
2018-09-30 05:00:00 19.1 7 Norte 12 Noroeste 0 -- -- 72
2018-09-30 04:00:00 19.4 7 Norte 25 Oeste 0 -- -- 74
2018-09-30 03:00:00 20.5 18 Oeste 51 Norte 0 -- -- 71
2018-09-30 02:00:00 22.5 32 Norte 54 Norte 0 -- -- 51
2018-09-30 01:00:00 22.3 29 Norte 46 Norte 0 -- -- 53
2018-09-30 00:00:00 22.6 25 Norte 40 Norte 0 -- -- 49
2018-09-29 23:00:00 22.6 16 Norte 34 Norte 0 -- -- 50
2018-09-29 22:00:00 21.1 6 Norte 26 Oeste 0 -- -- 65
2018-09-29 21:00:00 21.3 18 Oeste 25 Oeste 0 -- -- 69
2018-09-29 20:00:00 22.5 5 Nordeste 21 Noroeste 0 -- -- 57
2018-09-29 19:00:00 22.9 17 Oeste 31 Oeste 0 -- -- 65
2018-09-29 18:00:00 24.7 18 Sudoeste 29 Oeste 0 -- -- 59
2018-09-29 17:00:00 25.3 16 Sur 39 Sudeste 0 -- -- 59
2018-09-29 16:00:00 26.8 19 Sudeste 36 Sudeste 0 -- -- 51
2018-09-29 15:00:00 26.9 21 Sudeste 45 Sudeste 0 -- -- 48
2018-09-29 14:00:00 28.2 16 Oeste 35 Noroeste 0 -- -- 45
2018-09-29 13:00:00 27.5 15 Sudoeste 29 Sur 0 -- -- 49
2018-09-29 12:00:00 26.7 8 Sur 23 Oeste 0 -- -- 51
2018-09-29 11:00:00 24.9 7 Sudoeste 20 Oeste 0 -- -- 57
2018-09-29 10:00:00 22.9 14 Oeste 22 Oeste 0 -- -- 64
2018-09-29 09:00:00 21.5 10 Oeste 19 Oeste 0 -- -- 67
2018-09-29 08:00:00 19.3 10 Noroeste 14 Noroeste 0 -- -- 71
2018-09-29 07:00:00 19.5 8 Noroeste 12 Oeste 0 -- -- 66
2018-09-29 06:00:00 19.6 3 Oeste 16 Oeste 0 -- -- 73
2018-09-29 05:00:00 19.9 7 Sudoeste 18 Oeste 0 -- -- 68
2018-09-29 04:00:00 20.1 13 Noroeste 19 Noroeste 0 -- -- 69
2018-09-29 03:00:00 20.6 12 Noroeste 17 Noroeste 0 -- -- 67
2018-09-29 02:00:00 21.4 5 Sudoeste 14 Este 0 -- -- 63
2018-09-29 01:00:00 21 7 Noroeste 12 Noroeste 0 -- -- 56
2018-09-29 00:00:00 21.6 5 Nordeste 14 Norte 0 -- -- 53
2018-09-28 23:00:00 21.6 5 Noroeste 13 Norte 0 -- -- 51
2018-09-28 22:00:00 21.7 5 Noroeste 12 Sudeste 0 -- -- 64
2018-09-28 21:00:00 22.3 6 Nordeste 18 Oeste 0 -- -- 62
2018-09-28 20:00:00 22.8 9 Oeste 18 Oeste 0 -- -- 63
2018-09-28 19:00:00 24.1 13 Oeste 23 Oeste 0 -- -- 59
2018-09-28 18:00:00 25.2 16 Oeste 26 Oeste 0 -- -- 58
2018-09-28 17:00:00 26.1 13 Sudoeste 24 Sudoeste 0 -- -- 54
2018-09-28 16:00:00 27.3 12 Sudoeste 21 Sur 0 -- -- 53
2018-09-28 15:00:00 26.3 8 Sur 16 Sudoeste 0 -- -- 59
2018-09-28 14:00:00 26 10 Sur 17 Sudeste 0 -- -- 58
2018-09-28 13:00:00 25 6 Sur 19 Sur 0 -- -- 60
2018-09-28 12:00:00 25.1 8 Sudoeste 20 Oeste 0 -- -- 55
2018-09-28 11:00:00 23.6 10 Oeste 17 Sudoeste 0 -- -- 58
2018-09-28 10:00:00 24.2 8 Sudoeste 13 Sudoeste 0 -- -- 41
2018-09-28 09:00:00 21.2 2 Norte 15 Noroeste 0 -- -- 37
2018-09-28 08:00:00 19.4 14 Noroeste 16 Noroeste 0 -- -- 37
2018-09-28 07:00:00 18.8 3 Oeste 15 Norte 0 -- -- 55
2018-09-28 06:00:00 18.9 5 Nordeste 12 Norte 0 -- -- 66
2018-09-28 05:00:00 19 3 Norte 13 Nordeste 0 -- -- 69
2018-09-28 04:00:00 19.2 7 Nordeste 19 Este 0 -- -- 66
2018-09-28 03:00:00 19.8 5 Noroeste 19 Nordeste 0 -- -- 67
2018-09-28 02:00:00 20.8 12 Este 29 Oeste 0 -- -- 59
2018-09-28 01:00:00 20.8 19 Oeste 38 Sudoeste 0 -- -- 58
2018-09-28 00:00:00 22.3 20 Oeste 51 Norte 0 -- -- 52
2018-09-27 23:00:00 26.3 23 Noroeste 60 Noroeste 0 -- -- 16
2018-09-27 22:00:00 25.1 15 Norte 32 Noroeste 0 -- -- 18
2018-09-27 21:00:00 24.5 9 Oeste 45 Noroeste 0 -- -- 31
2018-09-27 20:00:00 26.5 28 Noroeste 47 Norte 0 -- -- 23
2018-09-27 19:00:00 27.9 27 Noroeste 64 Norte 0 -- -- 21
2018-09-27 18:00:00 29.5 39 Norte 66 Norte 0 -- -- 19
2018-09-27 17:00:00 30.4 22 Norte 55 Norte 0 -- -- 21
2018-09-27 16:00:00 32.1 17 Nordeste 50 Norte 0 -- -- 14
2018-09-27 15:00:00 32.3 15 Nordeste 40 Noroeste 0 -- -- 13
2018-09-27 14:00:00 29.1 20 Sudoeste 37 Nordeste 0 -- -- 41
2018-09-27 13:00:00 32.5 13 Nordeste 38 Norte 0 -- -- 13
2018-09-27 12:00:00 29.3 8 Sur 44 Este 0 -- -- 42
2018-09-27 11:00:00 23.5 19 Sudoeste 30 Oeste 0 -- -- 68
2018-09-27 10:00:00 24.4 13 Sudoeste 36 Norte 0 -- -- 63
2018-09-27 09:00:00 28.5 22 Norte 40 Norte 0 -- -- 18
2018-09-27 08:00:00 27.4 18 Norte 46 Norte 0 -- -- 20
2018-09-27 07:00:00 26.8 22 Norte 47 Norte 0 -- -- 22
2018-09-27 06:00:00 19.4 5 Este 18 Nordeste 0 -- -- 81
2018-09-27 05:00:00 18.8 6 Oeste 19 Oeste 0 -- -- 95
2018-09-27 04:00:00 18.9 13 Oeste 23 Oeste 0 -- -- 95
2018-09-27 03:00:00 19.1 9 Oeste 29 Oeste 0 -- -- 93
2018-09-27 02:00:00 19.6 10 Oeste 24 Oeste 0 -- -- 91
2018-09-27 01:00:00 20.6 12 Oeste 25 Este 0 -- -- 78
2018-09-27 00:00:00 23.5 3 Oeste 22 Norte 0 -- -- 53
2018-09-26 23:00:00 26.4 8 Nordeste 25 Norte 0 -- -- 32
2018-09-26 22:00:00 28.2 15 Norte 25 Norte 0 -- -- 23
2018-09-26 21:00:00 27.6 15 Norte 27 Norte 0 -- -- 23
2018-09-26 20:00:00 20.4 2 Sudoeste 10 Este 0 -- -- 88
2018-09-26 19:00:00 21.2 4 Sudeste 14 Este 0 -- -- 85
2018-09-26 18:00:00 23.2 6 Este 14 Sudeste 0 -- -- 78
2018-09-26 17:00:00 24.9 10 Sudeste 15 Sudeste 0 -- -- 71
2018-09-26 16:00:00 24.8 7 Este 15 Sudeste 0 -- -- 71
2018-09-26 15:00:00 24 9 Sudeste 18 Sudeste 0 -- -- 74
2018-09-26 14:00:00 24.6 10 Sudeste 17 Este 0 -- -- 72
2018-09-26 13:00:00 24.3 8 Sudeste 17 Este 0 -- -- 73
2018-09-26 12:00:00 23.5 8 Este 18 Sudeste 0 -- -- 75
2018-09-26 11:00:00 23.8 6 Sur 14 Sudoeste 0 -- -- 74
2018-09-26 10:00:00 22 9 Sudoeste 14 Oeste 0 -- -- 80
2018-09-26 09:00:00 18.7 11 Oeste 14 Oeste 0 -- -- 93
2018-09-26 08:00:00 18.4 5 Oeste 13 Oeste 0 -- -- 88
2018-09-26 07:00:00 18.4 8 Noroeste 16 Oeste 0 -- -- 90
2018-09-26 06:00:00 19.1 7 Oeste 12 Noroeste 0 -- -- 83
2018-09-26 05:00:00 19.1 5 Oeste 17 Oeste 0 -- -- 90
2018-09-26 04:00:00 20.6 12 Oeste 17 Oeste 0 -- -- 76
2018-09-26 03:00:00 22.9 2 Este 6 Sudeste 0 -- -- 44
2018-09-26 02:00:00 24.3 5 Nordeste 11 Norte 0 -- -- 39
2018-09-26 01:00:00 22.9 2 Nordeste 7 Norte 0 -- -- 63
2018-09-26 00:00:00 21.7 2 Sudoeste 8 Oeste 0 -- -- 75
2018-09-25 23:00:00 24.8 3 Noroeste 10 Norte 0 -- -- 43
2018-09-25 22:00:00 24.8 8 Norte 12 Norte 0 -- -- 38
2018-09-25 21:00:00 21.2 2 Noroeste 8 Sudeste 0 -- -- 87
2018-09-25 20:00:00 23.3 4 Nordeste 10 Sur 0 -- -- 75
2018-09-25 19:00:00 24.8 4 Este 11 Sudeste 0 -- -- 69
2018-09-25 18:00:00 28.4 3 Sudeste 9 Este 0 -- -- 45
2018-09-25 17:00:00 25.6 7 Sudeste 12 Sudeste 0 -- -- 69
2018-09-25 16:00:00 28.2 6 Sudeste 13 Sudeste 0 -- -- 57
2018-09-25 15:00:00 25.6 8 Sudeste 17 Sur 0 -- -- 68
2018-09-25 14:00:00 24.6 8 Sudeste 19 Sudeste 0 -- -- 71
2018-09-25 13:00:00 25.1 13 Sudeste 18 Sudeste 0 -- -- 69
2018-09-25 12:00:00 25.4 7 Sur 17 Sudeste 0 -- -- 67
2018-09-25 11:00:00 25.6 8 Sur 17 Sur 0 -- -- 66
2018-09-25 10:00:00 27.6 4 Sudeste 14 Noroeste 0 -- -- 33
2018-09-25 09:00:00 23.2 6 Oeste 18 Oeste 0 -- -- 39
2018-09-25 08:00:00 18.7 14 Oeste 19 Oeste 0 -- -- 92
2018-09-25 07:00:00 18.9 8 Oeste 21 Oeste 0 -- -- 74
2018-09-25 06:00:00 20.3 7 Noroeste 17 Oeste 0 -- -- 53
2018-09-25 05:00:00 21.9 7 Noroeste 12 Norte 0 -- -- 46
2018-09-25 04:00:00 22.5 5 Noroeste 13 Noroeste 0 -- -- 47
2018-09-25 03:00:00 22 3 Norte 8 Norte 0 -- -- 51
2018-09-25 02:00:00 22.5 4 Norte 9 Norte 0 -- -- 50
2018-09-25 01:00:00 23.3 4 Norte 9 Norte 0 -- -- 49
2018-09-25 00:00:00 22.3 6 Norte 8 Norte 0 -- -- 52
2018-09-24 23:00:00 23.6 5 Oeste 13 Oeste 0 -- -- 45
2018-09-24 22:00:00 23.7 7 Noroeste 13 Noroeste 0 -- -- 47
2018-09-24 21:00:00 23.9 10 Noroeste 13 Noroeste 0 -- -- 55
2018-09-24 20:00:00 22.5 2 Este 14 Noroeste 0 -- -- 74
2018-09-24 19:00:00 21.3 3 Sudeste 15 Sudeste 0 -- -- 87
2018-09-24 18:00:00 21.7 8 Sudeste 19 Sudeste 0 -- -- 86
2018-09-24 17:00:00 21.7 10 Sudeste 20 Sudeste 0 -- -- 85
2018-09-24 16:00:00 22.3 11 Sudeste 18 Sudeste 0 -- -- 82
2018-09-24 15:00:00 23.9 12 Sudeste 20 Sudeste 0 -- -- 76
2018-09-24 14:00:00 23.9 12 Sudeste 20 Sudeste 0 -- -- 75
2018-09-24 13:00:00 25.3 9 Sudeste 15 Sudeste 0 -- -- 68
2018-09-24 12:00:00 26.3 8 Sudeste 14 Este 0 -- -- 65
2018-09-24 11:00:00 28.5 4 Sudoeste 12 Sudeste 0 -- -- 57
2018-09-24 10:00:00 29.7 4 Sudeste 13 Nordeste 0 -- -- 45
2018-09-24 09:00:00 27.4 9 Norte 17 Norte 0 -- -- 35
2018-09-24 08:00:00 24.8 9 Nordeste 16 Norte 0 -- -- 41
2018-09-24 07:00:00 22.2 5 Norte 14 Norte 0 -- -- 46
2018-09-24 06:00:00 23.2 4 Noroeste 21 Este 0 -- -- 44
2018-09-24 05:00:00 23.5 8 Nordeste 15 Nordeste 0 -- -- 45
2018-09-24 04:00:00 23.4 9 Noroeste 15 Norte 0 -- -- 42
2018-09-24 03:00:00 23.2 4 Norte 10 Norte 0 -- -- 42
2018-09-24 02:00:00 23.2 3 Norte 8 Nordeste 0 -- -- 44
2018-09-24 01:00:00 23.4 2 Noroeste 8 Noroeste 0 -- -- 43
2018-09-24 00:00:00 24 3 Oeste 11 Norte 0 -- -- 46
2018-09-23 23:00:00 24.4 0 Calma 9 Norte 0 -- -- 45
2018-09-23 22:00:00 25.2 4 Norte 10 Norte 0 -- -- 43
2018-09-23 21:00:00 25.2 5 Noroeste 9 Noroeste 0 -- -- 50
2018-09-23 20:00:00 25.3 4 Noroeste 10 Noroeste 0 -- -- 63
2018-09-23 19:00:00 24.6 7 Sudoeste 12 Sudoeste 0 -- -- 71
2018-09-23 18:00:00 25.9 6 Sudeste 11 Sur 0 -- -- 67
2018-09-23 17:00:00 26.5 6 Sudeste 14 Sudeste 0 -- -- 63
2018-09-23 16:00:00 27.8 7 Sur 17 Sudoeste 0 -- -- 59
2018-09-23 15:00:00 27.3 8 Sur 17 Sur 0 -- -- 62
2018-09-23 14:00:00 28.1 9 Sur 17 Sur 0 -- -- 58
2018-09-23 13:00:00 29.1 9 Sur 16 Sur 0 -- -- 50
2018-09-23 12:00:00 29.2 6 Sudeste 13 Sudeste 0 -- -- 50
2018-09-23 11:00:00 27.9 5 Sudeste 13 Sur 0 -- -- 43
2018-09-23 10:00:00 28 8 Este 12 Sudeste 0 -- -- 39
2018-09-23 09:00:00 25.9 6 Este 14 Norte 0 -- -- 44
2018-09-23 08:00:00 22.4 11 Norte 14 Norte 0 -- -- 46
2018-09-23 07:00:00 21.9 8 Noroeste 12 Norte 0 -- -- 47
2018-09-23 06:00:00 21.3 4 Nordeste 13 Norte 0 -- -- 45
2018-09-23 05:00:00 21.8 5 Nordeste 15 Norte 0 -- -- 46
2018-09-23 04:00:00 21.2 13 Noroeste 17 Noroeste 0 -- -- 47
2018-09-23 03:00:00 22.5 6 Norte 15 Norte 0 -- -- 42
2018-09-23 02:00:00 20.3 4 Oeste 6 Oeste 0 -- -- 62
2018-09-23 01:00:00 20.9 2 Este 10 Norte 0 -- -- 52
2018-09-23 00:00:00 20.4 4 Noroeste 8 Noroeste 0 -- -- 68
2018-09-22 23:00:00 21 5 Noroeste 13 Noroeste 0 -- -- 71
2018-09-22 22:00:00 21.2 10 Noroeste 13 Noroeste 0 -- -- 71
2018-09-22 21:00:00 22 4 Sudeste 12 Noroeste 0 -- -- 71
2018-09-22 20:00:00 21.8 13 Oeste 20 Oeste 0 -- -- 73
2018-09-22 19:00:00 24.2 12 Oeste 19 Sudoeste 0 -- -- 66
2018-09-22 18:00:00 25.2 12 Sudoeste 19 Oeste 0 -- -- 63
2018-09-22 17:00:00 25.3 11 Sudoeste 17 Sudoeste 0 -- -- 61
2018-09-22 16:00:00 24.4 7 Sur 21 Sudeste 0 -- -- 64
2018-09-22 15:00:00 23.9 11 Sudeste 23 Sudeste 0 -- -- 65
2018-09-22 14:00:00 23.8 13 Sudeste 26 Sudeste 0 -- -- 65
2018-09-22 13:00:00 23.8 15 Sudeste 23 Sudeste 0 -- -- 67
2018-09-22 12:00:00 23.7 11 Sudeste 21 Sudeste 0 -- -- 65
2018-09-22 11:00:00 23.2 10 Sudeste 19 Este 0 -- -- 61
2018-09-22 10:00:00 21.8 5 Sudoeste 12 Oeste 0 -- -- 62
2018-09-22 09:00:00 19.3 8 Oeste 15 Oeste 0 -- -- 70
2018-09-22 08:00:00 16.9 11 Noroeste 16 Noroeste 0 -- -- 69
2018-09-22 07:00:00 16.1 9 Noroeste 12 Noroeste 0 -- -- 68
2018-09-22 06:00:00 16.1 9 Noroeste 13 Noroeste 0 -- -- 67
2018-09-22 05:00:00 16.4 10 Noroeste 14 Noroeste 0 -- -- 70
2018-09-22 04:00:00 16.8 11 Noroeste 15 Noroeste 0 -- -- 77
2018-09-22 03:00:00 16.3 5 Norte 17 Noroeste 0 -- -- 80
2018-09-22 02:00:00 17.7 12 Noroeste 18 Noroeste 0 -- -- 83
2018-09-22 01:00:00 17.4 9 Noroeste 13 Noroeste 0 -- -- 78
2018-09-22 00:00:00 17.2 6 Noroeste 11 Noroeste 0 -- -- 76
2018-09-21 23:00:00 17.8 6 Noroeste 12 Norte 0 -- -- 78
2018-09-21 22:00:00 18.5 6 Norte 16 Noroeste 0 -- -- 79
2018-09-21 21:00:00 19.4 13 Oeste 21 Oeste 0 -- -- 82
2018-09-21 20:00:00 20.2 8 Oeste 13 Oeste 0 -- -- 79
2018-09-21 19:00:00 21.3 8 Sur 20 Sudeste 0 -- -- 74
2018-09-21 18:00:00 22.7 6 Sudeste 17 Sudeste 0 -- -- 67
2018-09-21 17:00:00 22.8 10 Sudeste 24 Sudeste 0 -- -- 67
2018-09-21 16:00:00 23.3 17 Sudeste 29 Sudeste 0 -- -- 61
2018-09-21 15:00:00 23.1 16 Sudeste 27 Sudeste 0 -- -- 64
2018-09-21 14:00:00 23 17 Sudeste 30 Sudeste 0 -- -- 63
2018-09-21 13:00:00 23.5 18 Sudeste 28 Sudeste 0 -- -- 62
2018-09-21 12:00:00 23 18 Sudeste 30 Sudeste 0 -- -- 64
2018-09-21 11:00:00 22.9 9 Sudoeste 22 Sudoeste 0 -- -- 66
2018-09-21 10:00:00 21.3 15 Oeste 23 Oeste 0 -- -- 72
2018-09-21 09:00:00 19.5 10 Oeste 21 Oeste 0 -- -- 79
2018-09-21 08:00:00 17.1 8 Noroeste 14 Noroeste 0 -- -- 84
2018-09-21 07:00:00 17.6 11 Noroeste 20 Noroeste 0 -- -- 86
2018-09-21 06:00:00 17.9 11 Oeste 22 Oeste 0 -- -- 85
2018-09-21 05:00:00 17.5 6 Noroeste 14 Noroeste 0 -- -- 82
2018-09-21 04:00:00 18.2 10 Noroeste 14 Noroeste 0 -- -- 86
2018-09-21 03:00:00 19 8 Oeste 11 Noroeste 0 -- -- 87
2018-09-21 02:00:00 19.1 3 Sudeste 7 Sudeste 0 -- -- 89
2018-09-21 01:00:00 19.1 5 Sudeste 12 Sudeste 0 -- -- 88
2018-09-21 00:00:00 19.8 4 Sudeste 13 Este 0 -- -- 88
2018-09-20 23:00:00 20 5 Sur 8 Sudoeste 0 -- -- 88
2018-09-20 22:00:00 20.4 4 Sur 10 Sudoeste 0 -- -- 86
2018-09-20 21:00:00 20.3 2 Sudoeste 9 Sur 0 -- -- 87
2018-09-20 20:00:00 20.2 5 Sur 16 Sudeste 0 -- -- 87
2018-09-20 19:00:00 20.8 8 Este 15 Sudeste 0 -- -- 85
2018-09-20 18:00:00 21.4 10 Sudeste 21 Sudeste 0 -- -- 82
2018-09-20 17:00:00 22.4 13 Sudeste 25 Sudeste 0 -- -- 77
2018-09-20 16:00:00 23.8 14 Sudeste 21 Este 0 -- -- 70
2018-09-20 15:00:00 23 10 Sudeste 24 Sudeste 0 -- -- 75
2018-09-20 14:00:00 23.6 12 Sudeste 22 Sudeste 0 -- -- 72
2018-09-20 13:00:00 23.3 12 Sudeste 22 Sudeste 0 -- -- 73
2018-09-20 12:00:00 23.5 10 Sudeste 15 Sudeste 0 -- -- 74
2018-09-20 11:00:00 21.5 9 Sudeste 14 Sudeste 0 -- -- 85
2018-09-20 10:00:00 21.6 4 Sur 9 Sudeste 0 -- -- 81
2018-09-20 09:00:00 19.5 2 Sudeste 5 Sudeste 0 -- -- 91
2018-09-20 08:00:00 17.8 0 Calma 6 Norte 0 -- -- 89
2018-09-20 07:00:00 19 2 Sur 6 Sudeste 0 -- -- 93
2018-09-20 06:00:00 19.2 3 Sudeste 10 Sudeste 0 -- -- 94
2018-09-20 05:00:00 19.4 4 Este 7 Sudeste 0 -- -- 95
2018-09-20 04:00:00 19.4 3 Sudeste 8 Sudeste 0 -- -- 95
2018-09-20 03:00:00 19.4 4 Este 10 Este 0 -- -- 94
2018-09-20 02:00:00 19.6 4 Sudeste 9 Sudeste 0 -- -- 94
2018-09-20 01:00:00 19.5 6 Sudeste 13 Sudeste 0 -- -- 95
2018-09-20 00:00:00 19.6 9 Sudeste 17 Sudeste 0 -- -- 93
2018-09-19 23:00:00 19.7 9 Sudeste 16 Sudeste 0 -- -- 93
2018-09-19 22:00:00 20.1 8 Sudeste 12 Sudeste 0 -- -- 92
2018-09-19 21:00:00 20.2 6 Sudeste 11 Sudeste 0 -- -- 92
2018-09-19 20:00:00 20.2 6 Sudeste 17 Sudeste 0 -- -- 91
2018-09-19 19:00:00 20.6 11 Sudeste 19 Sudeste 0 -- -- 88
2018-09-19 18:00:00 21.6 12 Sudeste 19 Sudeste 0 -- -- 82
2018-09-19 17:00:00 23.1 13 Sudeste 22 Sudeste 0 -- -- 73
2018-09-19 16:00:00 23.4 10 Sudeste 24 Sudeste 0 -- -- 74
2018-09-19 15:00:00 25.3 9 Este 21 Sudeste 0 -- -- 62
2018-09-19 14:00:00 26.3 5 Sudeste 26 Norte 0 -- -- 56
2018-09-19 13:00:00 19.8 8 Sudeste 15 Sur 0 -- -- 90
2018-09-19 12:00:00 20.5 3 Nordeste 16 Sudeste 0 -- -- 86
2018-09-19 11:00:00 20.8 11 Sudeste 21 Sudeste 0 -- -- 82
2018-09-19 10:00:00 22.4 10 Este 18 Este 0 -- -- 77
2018-09-19 09:00:00 19.4 6 Sudeste 13 Norte 0 -- -- 83
2018-09-19 08:00:00 18.3 10 Noroeste 15 Noroeste 0 -- -- 84
2018-09-19 07:00:00 18.2 6 Norte 20 Este 0 -- -- 87
2018-09-19 06:00:00 18.6 5 Norte 12 Norte 0 -- -- 80
2018-09-19 05:00:00 17.2 4 Norte 10 Noroeste 0 -- -- 86
2018-09-19 04:00:00 17.7 9 Norte 13 Norte 0 -- -- 82
2018-09-19 03:00:00 19 5 Este 11 Sudeste 0 -- -- 89
2018-09-19 02:00:00 18.6 3 Noroeste 7 Noroeste 0 -- -- 83
2018-09-19 01:00:00 19 4 Sudeste 17 Noroeste 0 -- -- 85
2018-09-19 00:00:00 18.5 4 Oeste 11 Noroeste 0 -- -- 83
2018-09-18 23:00:00 19.8 7 Oeste 15 Sur 0 -- -- 84
2018-09-18 22:00:00 19.7 6 Sudeste 15 Sudeste 0 -- -- 84
2018-09-18 21:00:00 19.6 7 Sudeste 21 Sudeste 0 -- -- 89
2018-09-18 20:00:00 19.7 9 Este 18 Sudeste 0 -- -- 87
2018-09-18 19:00:00 20.1 14 Este 23 Sudeste 0 -- -- 82
2018-09-18 18:00:00 21 15 Este 24 Sudeste 0 -- -- 81
2018-09-18 17:00:00 22.8 14 Sudeste 26 Sudeste 0 -- -- 69
2018-09-18 16:00:00 22.6 15 Sudeste 24 Sudeste 0 -- -- 65
2018-09-18 15:00:00 22.8 17 Este 29 Sudeste 0 -- -- 65
2018-09-18 14:00:00 23.5 14 Sudeste 28 Sudeste 0 -- -- 62
2018-09-18 13:00:00 23.6 16 Este 28 Sudeste 0 -- -- 61
2018-09-18 12:00:00 22.6 14 Sudeste 27 Sudeste 0 -- -- 64
2018-09-18 11:00:00 21.4 16 Sudeste 24 Sudeste 0 -- -- 72
2018-09-18 10:00:00 19.5 12 Sudeste 17 Este 0 -- -- 81
2018-09-18 09:00:00 19 9 Este 21 Nordeste 0 -- -- 87
2018-09-18 08:00:00 18.3 12 Nordeste 19 Nordeste 0 -- -- 76
2018-09-18 07:00:00 18.4 12 Norte 19 Nordeste 0 -- -- 69
2018-09-18 06:00:00 18.8 9 Nordeste 17 Este 0 -- -- 71
2018-09-18 05:00:00 18.3 6 Norte 10 Norte 0 -- -- 74
2018-09-18 04:00:00 18 5 Este 10 Este 0 -- -- 84
2018-09-18 03:00:00 17.1 2 Norte 11 Noroeste 0 -- -- 86
2018-09-18 02:00:00 16.9 8 Noroeste 13 Noroeste 0 -- -- 84
2018-09-18 01:00:00 17.5 9 Noroeste 12 Noroeste 0 -- -- 85
2018-09-18 00:00:00 17.2 4 Noroeste 11 Noroeste 0 -- -- 79
2018-09-17 23:00:00 17.7 6 Noroeste 11 Noroeste 0 -- -- 82
2018-09-17 22:00:00 19.1 2 Noroeste 9 Sur 0 -- -- 81
2018-09-17 21:00:00 19.1 5 Sudeste 11 Sudeste 0 -- -- 80
2018-09-17 20:00:00 19.3 7 Sudeste 15 Sudeste 0 -- -- 80
2018-09-17 19:00:00 20.5 8 Este 18 Este 0 -- -- 74
2018-09-17 18:00:00 20.5 11 Sudeste 23 Sudeste 0 -- -- 74
2018-09-17 17:00:00 22 14 Sudeste 23 Este 0 -- -- 67
2018-09-17 16:00:00 22.2 15 Sudeste 27 Sudeste 0 -- -- 65
2018-09-17 15:00:00 22.3 14 Sudeste 23 Sudeste 0 -- -- 68
2018-09-17 14:00:00 23.4 15 Sudeste 28 Sudeste 0 -- -- 64
2018-09-17 13:00:00 23.1 13 Sudeste 24 Sudeste 0 -- -- 64
2018-09-17 12:00:00 22.9 10 Sudeste 21 Sur 0 -- -- 66
2018-09-17 11:00:00 22.3 8 Sur 18 Sur 0 -- -- 67
2018-09-17 10:00:00 21.4 7 Sur 12 Sur 0 -- -- 70
2018-09-17 09:00:00 19.9 5 Sur 9 Norte 0 -- -- 77
2018-09-17 08:00:00 17.2 6 Este 11 Nordeste 0 -- -- 83
2018-09-17 07:00:00 16.1 5 Nordeste 9 Nordeste 0 -- -- 82
2018-09-17 06:00:00 16.8 2 Noroeste 11 Noroeste 0 -- -- 77
2018-09-17 05:00:00 16.6 3 Noroeste 9 Norte 0 -- -- 75
2018-09-17 04:00:00 16.8 3 Nordeste 7 Norte 0 -- -- 79
2018-09-17 03:00:00 17.8 3 Este 8 Norte 0 -- -- 79
2018-09-17 02:00:00 17.9 6 Norte 9 Norte 0 -- -- 71
2018-09-17 01:00:00 18.1 6 Norte 8 Nordeste 0 -- -- 67
2018-09-17 00:00:00 18.6 5 Noroeste 12 Noroeste 0 -- -- 65
2018-09-16 23:00:00 19.2 6 Norte 11 Norte 0 -- -- 69
2018-09-16 22:00:00 20.6 5 Sudeste 16 Este 0 -- -- 76
2018-09-16 21:00:00 21.2 9 Este 16 Este 0 -- -- 70
2018-09-16 20:00:00 21.2 12 Oeste 23 Oeste 0 -- -- 76
2018-09-16 19:00:00 23.8 17 Oeste 23 Oeste 0 -- -- 63
2018-09-16 18:00:00 25.2 14 Oeste 27 Oeste 0 -- -- 60
2018-09-16 17:00:00 25.7 16 Oeste 27 Sudoeste 0 -- -- 60
2018-09-16 16:00:00 24.4 12 Sur 28 Sur 0 -- -- 65
2018-09-16 15:00:00 23.5 12 Sudeste 28 Sudeste 0 -- -- 69
2018-09-16 14:00:00 23.8 15 Sudeste 26 Sudeste 0 -- -- 70
2018-09-16 13:00:00 24 14 Sudeste 29 Este 0 -- -- 69
2018-09-16 12:00:00 23.2 13 Sudeste 22 Sudeste 0 -- -- 72
2018-09-16 11:00:00 22.9 7 Sudeste 28 Sur 0 -- -- 72
2018-09-16 10:00:00 23.9 8 Sudeste 15 Sudeste 0 -- -- 51
2018-09-16 09:00:00 21.4 5 Oeste 17 Noroeste 0 -- -- 57
2018-09-16 08:00:00 17.5 10 Noroeste 16 Norte 0 -- -- 66
2018-09-16 07:00:00 18.5 7 Noroeste 19 Noroeste 0 -- -- 63
2018-09-16 06:00:00 18.5 12 Noroeste 17 Este 0 -- -- 64
2018-09-16 05:00:00 17.6 12 Norte 17 Norte 0 -- -- 75
2018-09-16 04:00:00 17.8 10 Noroeste 12 Noroeste 0 -- -- 78
2018-09-16 03:00:00 17.5 6 Noroeste 9 Este 0 -- -- 75
2018-09-16 02:00:00 17.9 4 Noroeste 11 Norte 0 -- -- 77
2018-09-16 01:00:00 18.3 4 Nordeste 12 Norte 0 -- -- 85
2018-09-16 00:00:00 18.9 5 Norte 11 Sudeste 0 -- -- 88
2018-09-15 23:00:00 19.4 6 Este 13 Nordeste 0 -- -- 87
2018-09-15 22:00:00 19.6 9 Este 14 Sudeste 0 -- -- 87
2018-09-15 21:00:00 20.4 5 Sur 24 Sudoeste 0 -- -- 80
2018-09-15 20:00:00 21.2 13 Oeste 20 Sudoeste 0 -- -- 77
2018-09-15 19:00:00 22.1 13 Sudeste 22 Sur 0 -- -- 70
2018-09-15 18:00:00 23.4 12 Sur 26 Sudeste 0 -- -- 71
2018-09-15 17:00:00 24.4 11 Sur 26 Sudoeste 0 -- -- 63
2018-09-15 16:00:00 24.6 12 Sudoeste 25 Sudoeste 0 -- -- 62
2018-09-15 15:00:00 24.6 13 Sudoeste 25 Sur 0 -- -- 60
2018-09-15 14:00:00 23.9 13 Sudoeste 22 Sudoeste 0 -- -- 61
2018-09-15 13:00:00 24.8 10 Sudoeste 20 Sudoeste 0 -- -- 62
2018-09-15 12:00:00 24.5 11 Sudoeste 23 Sudoeste 0 -- -- 65
2018-09-15 11:00:00 23.5 12 Sudoeste 20 Sudoeste 0 -- -- 72
2018-09-15 10:00:00 22.9 8 Sur 15 Sur 0 -- -- 79
2018-09-15 09:00:00 20.3 6 Sudoeste 14 Oeste 0 -- -- 92
2018-09-15 08:00:00 19.9 6 Oeste 9 Oeste 0 -- -- 95
2018-09-15 07:00:00 20.1 4 Sudoeste 11 Oeste 0 -- -- 95
2018-09-15 06:00:00 20.3 5 Sudoeste 13 Oeste 0 -- -- 95
2018-09-15 05:00:00 20.4 7 Oeste 13 Oeste 0 -- -- 95
2018-09-15 04:00:00 20.5 5 Oeste 9 Oeste 0 -- -- 95
2018-09-15 03:00:00 20.6 3 Oeste 9 Oeste 0 -- -- 95
2018-09-15 02:00:00 20.8 5 Sudoeste 9 Sur 0 -- -- 94
2018-09-15 01:00:00 20.9 4 Oeste 6 Oeste 0 -- -- 95
2018-09-15 00:00:00 20.8 0 Calma 6 Sudeste 0 -- -- 95